Change the Weather History Date:

Monday, February 25, 2013

  Actual Average Record
Temperature  
Mean Temperature 30 °F -  
Max Temperature 32 °F 43 °F 71 °F (2009)
Min Temperature 28 °F 21 °F -5 °F (2003)
Degree Days  
Heating Degree Days 35    
Moisture  
Dew Point 27 °F    
Average Humidity 87    
Maximum Humidity 93    
Minimum Humidity 80    
Precipitation  
Precipitation 0.02 in - - ()
Sea Level Pressure  
Sea Level Pressure 29.92 in    
Wind  
Wind Speed 20 mph (North)    
Max Wind Speed 23 mph    
Max Gust Speed 28 mph    
Visibility 6 miles    
Events      
Averages and records for this station are not official NWS values.
T = Trace of Precipitation, MM = Missing Value Source: NWS Daily Summary

Daily Weather History Graph

Daily Weather History Graph

Search for Another Location

Airport or City:

Trip Planner

Search our weather history database for the weather conditions in past years. The results will help you decide how hot, cold, wet, or windy it might be!

Date:

Astronomy

Feb. 25, 2013 Rise Set
Actual Time 7:14 AM CST 6:25 PM CST
Civil Twilight 6:47 AM CST 6:52 PM CST
Nautical Twilight 6:17 AM CST 7:23 PM CST
Astronomical Twilight 5:46 AM CST 7:54 PM CST
Moon 6:40 PM CST (2/25) 6:46 AM CST (2/25)
Length of Visible Light 12h 04m
Length of Day
11h 11m
Full, 100% of the Moon is Illuminated
Feb 25
Full
Feb 25
Full
Mar 4
Last Quarter
Mar 11
New
Mar 19
First Quarter

Hourly Weather History & Observations

Time (CST) Temp. Windchill Dew Point Humidity Pressure Visibility Wind Dir Wind Speed Gust Speed Precip Events Conditions
12:15 AM 30.2 °F 17.8 °F 28.4 °F 93% 29.94 in 2.0 mi NNE 19.6 mph - N/A   Overcast
12:35 AM 30.2 °F 18.1 °F 28.4 °F 93% 29.95 in 2.0 mi North 18.4 mph - N/A   Overcast
12:55 AM 30.2 °F 17.8 °F 28.4 °F 93% 29.95 in 2.0 mi North 19.6 mph 25.3 mph N/A   Overcast
1:15 AM 30.2 °F 17.4 °F 26.6 °F 86% 29.93 in 2.5 mi North 20.7 mph 27.6 mph N/A   Overcast
1:35 AM 28.4 °F 15.4 °F 26.6 °F 93% 29.95 in 3.0 mi NNE 19.6 mph - N/A   Overcast
1:55 AM 28.4 °F 15.8 °F 26.6 °F 93% 29.97 in 3.0 mi NNE 18.4 mph 25.3 mph N/A   Overcast
2:15 AM 28.4 °F 15.4 °F 26.6 °F 93% 29.96 in 2.5 mi NNE 19.6 mph 25.3 mph N/A   Overcast
2:35 AM 28.4 °F 15.1 °F 26.6 °F 93% 29.95 in 2.5 mi NNE 20.7 mph - N/A   Overcast
2:55 AM 28.4 °F 15.4 °F 26.6 °F 93% 29.95 in 3.0 mi North 19.6 mph 24.2 mph N/A   Overcast
3:15 AM 28.4 °F 15.4 °F 26.6 °F 93% 29.96 in 3.0 mi North 19.6 mph 24.2 mph N/A   Overcast
3:35 AM 28.4 °F 15.4 °F 26.6 °F 93% 29.96 in 3.0 mi North 19.6 mph - N/A   Overcast
3:55 AM 28.4 °F 15.4 °F 26.6 °F 93% 29.95 in 2.5 mi North 19.6 mph - N/A   Overcast
4:15 AM 28.4 °F 15.1 °F 26.6 °F 93% 29.95 in 2.0 mi North 20.7 mph - N/A   Overcast
4:35 AM 28.4 °F 15.1 °F 26.6 °F 93% 29.95 in 2.0 mi North 20.7 mph - N/A   Overcast
4:55 AM 28.4 °F 15.4 °F 26.6 °F 93% 29.95 in 2.5 mi North 19.6 mph - N/A   Overcast
5:15 AM 28.4 °F 15.4 °F 26.6 °F 93% 29.95 in 3.0 mi North 19.6 mph - N/A   Overcast
5:35 AM 28.4 °F 14.7 °F 26.6 °F 93% 29.94 in 2.5 mi North 21.9 mph - N/A   Overcast
5:55 AM 28.4 °F 14.7 °F 26.6 °F 93% 29.94 in 3.0 mi North 21.9 mph - N/A   Overcast
6:15 AM 28.4 °F 15.1 °F 26.6 °F 93% 29.93 in 3.0 mi North 20.7 mph - N/A   Overcast
6:35 AM 28.4 °F 15.1 °F 26.6 °F 93% 29.94 in 3.0 mi North 20.7 mph - N/A   Overcast
6:55 AM 28.4 °F 14.7 °F 26.6 °F 93% 29.95 in 2.5 mi North 21.9 mph - N/A   Overcast
7:15 AM 28.4 °F 15.1 °F 26.6 °F 93% 29.95 in 1.2 mi North 20.7 mph - N/A   Overcast
7:35 AM 28.4 °F 15.1 °F 26.6 °F 93% 29.96 in 0.8 mi North 20.7 mph 25.3 mph N/A   Overcast
7:55 AM 28.4 °F 15.4 °F 26.6 °F 93% 29.97 in 1.2 mi North 19.6 mph - N/A   Overcast
8:15 AM 28.4 °F 16.2 °F 26.6 °F 93% 29.97 in 1.5 mi North 17.3 mph - N/A   Overcast
8:35 AM 28.4 °F 15.1 °F 26.6 °F 93% 29.97 in 1.5 mi North 20.7 mph - N/A   Overcast
8:55 AM 28.4 °F 14.7 °F 26.6 °F 93% 29.97 in 1.5 mi North 21.9 mph - N/A   Overcast
9:15 AM 28.4 °F 15.1 °F 24.8 °F 86% 29.98 in 1.8 mi North 20.7 mph 26.5 mph N/A   Overcast
9:35 AM 28.4 °F 15.4 °F 26.6 °F 93% 29.98 in 1.8 mi North 19.6 mph - N/A   Overcast
9:55 AM 28.4 °F 15.1 °F 24.8 °F 86% 29.98 in 2.5 mi North 20.7 mph - N/A   Overcast
10:15 AM 30.2 °F 17.4 °F 24.8 °F 80% 29.97 in 4.0 mi NNE 20.7 mph - N/A   Overcast
10:35 AM 30.2 °F 17.4 °F 24.8 °F 80% 29.95 in 7.0 mi North 20.7 mph 27.6 mph N/A   Overcast
10:55 AM 30.2 °F 16.8 °F 24.8 °F 80% 29.93 in 8.0 mi North 23.0 mph - N/A   Overcast
11:15 AM 30.2 °F 16.8 °F 24.8 °F 80% 29.94 in 9.0 mi North 23.0 mph - N/A   Overcast
11:35 AM 30.2 °F 17.4 °F 24.8 °F 80% 29.94 in 10.0 mi North 20.7 mph - N/A   Overcast
11:55 AM 30.2 °F 17.4 °F 24.8 °F 80% 29.94 in 10.0 mi North 20.7 mph - N/A   Overcast
12:15 PM 32.0 °F 19.2 °F 26.6 °F 80% 29.93 in 10.0 mi North 23.0 mph 26.5 mph N/A   Overcast
12:35 PM 32.0 °F 19.8 °F 26.6 °F 80% 29.93 in 10.0 mi North 20.7 mph - N/A   Overcast
12:55 PM 32.0 °F 20.1 °F 26.6 °F 80% 29.93 in 10.0 mi North 19.6 mph - N/A   Overcast
1:15 PM 32.0 °F 19.8 °F 26.6 °F 80% 29.92 in 10.0 mi North 20.7 mph - N/A   Overcast
1:35 PM 32.0 °F 20.1 °F 26.6 °F 80% 29.92 in 10.0 mi North 19.6 mph - 0.01 in   Overcast
1:55 PM 32.0 °F 20.1 °F 26.6 °F 80% 29.91 in 9.0 mi NNE 19.6 mph - 0.02 in   Overcast
2:15 PM 32.0 °F 20.1 °F 26.6 °F 80% 29.91 in 5.0 mi North 19.6 mph - N/A   Overcast
2:35 PM 32.0 °F 19.2 °F 26.6 °F 80% 29.91 in 5.0 mi North 23.0 mph - N/A   Overcast
2:55 PM 32.0 °F 19.2 °F 28.4 °F 87% 29.90 in 5.0 mi North 23.0 mph 27.6 mph N/A   Overcast
3:15 PM 32.0 °F 19.2 °F 28.4 °F 87% 29.90 in 6.0 mi North 23.0 mph - N/A   Overcast
3:35 PM 32.0 °F 19.5 °F 28.4 °F 87% 29.90 in 7.0 mi North 21.9 mph 27.6 mph N/A   Overcast
3:55 PM 32.0 °F 19.2 °F 28.4 °F 87% 29.90 in 7.0 mi North 23.0 mph - N/A   Overcast
4:15 PM 32.0 °F 19.2 °F 26.6 °F 80% 29.89 in 8.0 mi North 23.0 mph 27.6 mph N/A   Overcast
4:35 PM 32.0 °F 20.1 °F 28.4 °F 87% 29.89 in 7.0 mi North 19.6 mph - N/A   Overcast
4:55 PM 32.0 °F 19.5 °F 26.6 °F 80% 29.88 in 7.0 mi North 21.9 mph - N/A   Overcast
5:15 PM 32.0 °F 20.5 °F 26.6 °F 80% 29.88 in 7.0 mi North 18.4 mph 26.5 mph N/A   Overcast
5:35 PM 32.0 °F 20.5 °F 28.4 °F 87% 29.88 in 6.0 mi North 18.4 mph - N/A   Overcast
5:55 PM 32.0 °F 20.5 °F 28.4 °F 87% 29.87 in 6.0 mi North 18.4 mph - N/A   Overcast
6:15 PM 32.0 °F 20.1 °F 28.4 °F 87% 29.87 in 6.0 mi North 19.6 mph - N/A   Overcast
6:35 PM 32.0 °F 19.2 °F 28.4 °F 87% 29.86 in 7.0 mi North 23.0 mph - N/A   Overcast
6:55 PM 32.0 °F 20.1 °F 26.6 °F 80% 29.86 in 10.0 mi North 19.6 mph - N/A   Overcast
7:15 PM 32.0 °F 19.8 °F 28.4 °F 87% 29.86 in 10.0 mi North 20.7 mph - N/A   Overcast
7:35 PM 30.2 °F 17.4 °F 26.6 °F 86% 29.86 in 10.0 mi North 20.7 mph - N/A   Overcast
8:15 PM 30.2 °F 18.1 °F 26.6 °F 86% 29.86 in 10.0 mi North 18.4 mph - N/A   Overcast
8:55 PM 30.2 °F 18.1 °F 26.6 °F 86% 29.86 in 10.0 mi North 18.4 mph - N/A   Overcast
9:15 PM 30.2 °F 18.5 °F 26.6 °F 86% 29.87 in 10.0 mi North 17.3 mph - N/A   Overcast
9:35 PM 30.2 °F 18.9 °F 26.6 °F 86% 29.87 in 10.0 mi North 16.1 mph - N/A   Overcast
9:55 PM 30.2 °F 18.9 °F 26.6 °F 86% 29.87 in 10.0 mi North 16.1 mph - N/A   Overcast
10:15 PM 30.2 °F 20.2 °F 26.6 °F 86% 29.89 in 10.0 mi North 12.7 mph - N/A   Overcast
10:35 PM 30.2 °F 19.8 °F 26.6 °F 86% 29.88 in 10.0 mi North 13.8 mph - N/A   Overcast
10:55 PM 30.2 °F 19.8 °F 26.6 °F 86% 29.88 in 10.0 mi North 13.8 mph - N/A   Overcast
11:15 PM 30.2 °F 19.3 °F 26.6 °F 86% 29.86 in 10.0 mi North 15.0 mph - N/A   Overcast
11:35 PM 30.2 °F 19.3 °F 24.8 °F 80% 29.86 in 10.0 mi North 15.0 mph - N/A   Overcast
11:55 PM 28.4 °F 17.0 °F 24.8 °F 86% 29.86 in 10.0 mi North 15.0 mph - N/A   Overcast